sat.trackr.live / text

‹ back to catalog

STARLINK-32580

NORAD 62075 · 2024-217U

PAYLOAD ACTIVE UNKNOWN

§ Identity

Operator
Country
US
Launch date
2024-11-24
Launch site
AFWTR
Launch vehicle
Mass (kg)
RCS (m²)

Purposes: comms

External: N2YO · Heavens-Above · Gunter

§ Orbital elements

Epoch: 2026-09-21T17:13:05.716992Z

Period
93.85 min
Inclination
53.1602°
Eccentricity
0.0001183
Mean motion
15.34404388 rev/d
Perigee alt
461.9 km
Apogee alt
463.5 km
Semi-major
6,840.8 km
B*
4.4192e-4
RAAN
349.9079°
Arg perigee
78.8004°
Mean anomaly
281.3132°
Rev number
10,362

§ Raw data

STARLINK-325801 62075U 24217U   26264.71742728  .00014586  00000+0  44192-3 0  99902 62075  53.1602 349.9079 0001183  78.8004 281.3132 15.34404388103622

JSON: /api/v1/satellites/62075 · /tle

For live sub-satellite position, see the globe view (requires WebGL).

§ Visibility from observer

Set your observer location to see the next 7 days of passes ≥ 10°. The values pass through the URL so the page stays shareable.

No JS? Fill the form by hand. The geolocation button needs JavaScript.